• In Germany
  • List of Countries
  • For 7 days
  • Water Temperature
  • Satellite Maps
  • Weather Map
  • Weather Widgets
  • user-avatar
    Login

    Hourly Weather Jalalabad

    Today, 19 August, Saturday

    Time Temperature Precipitation Wind Pressure Humidity
    00:00 +33°C° 0 mm 1 mps 705 mmHg 33%
    01:00 +32°C° 0 mm 1 mps 705 mmHg 35%
    02:00 +29°C° 0 mm 0 mps 705 mmHg 37%
    03:00 +29°C° 0 mm 0 mps 705 mmHg 38%
    04:00 +28°C° 0 mm 0 mps 705 mmHg 39%
    05:00 +28°C° 0 mm 0 mps 705 mmHg 40%
    06:00 +29°C° 0 mm 0 mps 705 mmHg 37%
    07:00 +32°C° 0 mm 1 mps 706 mmHg 34%
    08:00 +33°C° 0 mm 1 mps 706 mmHg 30%
    09:00 +34°C° 0 mm 1 mps 707 mmHg 29%
    10:00 +35°C° 0 mm 1 mps 707 mmHg 28%
    11:00 +37°C° 0 mm 2 mps 707 mmHg 27%
    12:00 +38°C° 0 mm 2 mps 706 mmHg 25%
    13:00 +39°C° 0 mm 2 mps 706 mmHg 24%
    14:00 +40°C° 0 mm 2 mps 706 mmHg 22%
    15:00 +40°C° 0 mm 3 mps 705 mmHg 22%
    16:00 +40°C° 0 mm 3 mps 705 mmHg 22%
    17:00 +40°C° 0 mm 3 mps 705 mmHg 21%
    18:00 +39°C° 0 mm 2 mps 705 mmHg 25%
    19:00 +36°C° 0 mm 1 mps 705 mmHg 28%
    20:00 +35°C° 0 mm 1 mps 705 mmHg 31%
    21:00 +34°C° 0 mm 1 mps 706 mmHg 33%
    22:00 +34°C° 0 mm 1 mps 706 mmHg 35%
    23:00 +31°C° 0 mm 0 mps 706 mmHg 37%

    Tomorrow, 20 August, Sunday

    Time Temperature Precipitation Wind Pressure Humidity
    00:00 +30°C° 0 mm 0 mps 706 mmHg 39%
    01:00 +30°C° 0 mm 0 mps 706 mmHg 40%
    02:00 +29°C° 0 mm 0 mps 706 mmHg 41%
    03:00 +29°C° 0 mm 0 mps 706 mmHg 42%
    04:00 +30°C° 0 mm 1 mps 706 mmHg 42%
    05:00 +30°C° 0 mm 1 mps 706 mmHg 43%
    06:00 +31°C° 0 mm 1 mps 706 mmHg 40%
    07:00 +32°C° 0 mm 1 mps 707 mmHg 37%
    08:00 +33°C° 0 mm 1 mps 707 mmHg 35%
    09:00 +34°C° 0 mm 1 mps 707 mmHg 32%
    10:00 +35°C° 0 mm 1 mps 707 mmHg 30%
    11:00 +37°C° 0 mm 2 mps 707 mmHg 28%
    12:00 +38°C° 0 mm 2 mps 706 mmHg 26%
    13:00 +38°C° 0 mm 2 mps 706 mmHg 25%
    14:00 +39°C° 0 mm 3 mps 705 mmHg 23%
    15:00 +39°C° 0 mm 3 mps 705 mmHg 23%
    16:00 +39°C° 0 mm 3 mps 705 mmHg 24%
    17:00 +39°C° 0 mm 3 mps 704 mmHg 24%
    18:00 +38°C° 0.1 mm 2 mps 704 mmHg 29%
    19:00 +37°C° 0.1 mm 2 mps 705 mmHg 34%
    20:00 +34°C° 0.1 mm 1 mps 705 mmHg 38%
    21:00 +34°C° 0 mm 1 mps 705 mmHg 41%
    22:00 +33°C° 0 mm 1 mps 705 mmHg 43%
    23:00 +33°C° 0 mm 1 mps 705 mmHg 45%

    Day after tomorrow, 21 August, Monday

    Time Temperature Precipitation Wind Pressure Humidity
    00:00 +32°C° 0 mm 1 mps 705 mmHg 46%
    01:00 +31°C° 0 mm 1 mps 705 mmHg 47%
    02:00 +31°C° 0 mm 1 mps 705 mmHg 48%
    03:00 +30°C° 0 mm 1 mps 705 mmHg 48%
    04:00 +30°C° 0 mm 1 mps 705 mmHg 48%
    05:00 +29°C° 0 mm 1 mps 705 mmHg 49%
    06:00 +30°C° 0 mm 1 mps 705 mmHg 45%
    07:00 +31°C° 0 mm 1 mps 705 mmHg 41%
    08:00 +32°C° 0 mm 1 mps 706 mmHg 37%
    09:00 +34°C° 0 mm 1 mps 706 mmHg 33%
    10:00 +35°C° 0 mm 1 mps 706 mmHg 28%
    11:00 +37°C° 0 mm 2 mps 706 mmHg 24%
    12:00 +38°C° 0 mm 2 mps 705 mmHg 23%
    13:00 +38°C° 0 mm 2 mps 705 mmHg 22%
    14:00 +39°C° 0 mm 3 mps 704 mmHg 21%
    15:00 +39°C° 0 mm 3 mps 704 mmHg 21%
    16:00 +39°C° 0 mm 3 mps 703 mmHg 22%
    17:00 +39°C° 0 mm 3 mps 703 mmHg 23%
    18:00 +38°C° 0 mm 2 mps 703 mmHg 27%
    19:00 +35°C° 0 mm 1 mps 703 mmHg 31%
    20:00 +34°C° 0 mm 1 mps 703 mmHg 35%
    21:00 +34°C° 0 mm 1 mps 703 mmHg 37%
    22:00 +33°C° 0 mm 1 mps 704 mmHg 38%
    23:00 +32°C° 0 mm 1 mps 704 mmHg 39%

    22 August, Tuesday

    Time Temperature Precipitation Wind Pressure Humidity
    00:00 +32°C° 0 mm 1 mps 704 mmHg 41%
    01:00 +31°C° 0 mm 1 mps 704 mmHg 42%
    02:00 +31°C° 0 mm 1 mps 703 mmHg 43%
    03:00 +30°C° 0.1 mm 1 mps 703 mmHg 44%
    04:00 +30°C° 0.1 mm 1 mps 704 mmHg 45%
    05:00 +29°C° 0.1 mm 1 mps 704 mmHg 47%
    06:00 +30°C° 0 mm 1 mps 704 mmHg 44%
    07:00 +32°C° 0 mm 1 mps 705 mmHg 42%
    08:00 +33°C° 0 mm 1 mps 705 mmHg 39%
    09:00 +34°C° 0 mm 1 mps 705 mmHg 36%
    10:00 +35°C° 0 mm 1 mps 705 mmHg 32%
    11:00 +37°C° 0 mm 2 mps 705 mmHg 29%
    12:00 +38°C° 0 mm 2 mps 705 mmHg 28%
    13:00 +38°C° 0 mm 2 mps 704 mmHg 26%
    14:00 +39°C° 0 mm 2 mps 704 mmHg 25%
    15:00 +39°C° 0.1 mm 2 mps 704 mmHg 25%
    16:00 +39°C° 0.1 mm 2 mps 703 mmHg 25%
    17:00 +39°C° 0.1 mm 2 mps 703 mmHg 25%
    18:00 +38°C° 0.1 mm 2 mps 703 mmHg 29%
    19:00 +36°C° 0.1 mm 1 mps 703 mmHg 33%
    20:00 +34°C° 0.1 mm 1 mps 704 mmHg 36%
    21:00 +34°C° 0.2 mm 1 mps 704 mmHg 38%
    22:00 +33°C° 0.2 mm 1 mps 704 mmHg 39%
    23:00 +33°C° 0.2 mm 1 mps 704 mmHg 41%

    23 August, Wednesday

    Time Temperature Precipitation Wind Pressure Humidity
    00:00 +32°C° 0.1 mm 1 mps 704 mmHg 41%
    01:00 +32°C° 0.1 mm 1 mps 704 mmHg 42%
    02:00 +29°C° 0.1 mm 0 mps 704 mmHg 43%
    03:00 +29°C° 0 mm 0 mps 704 mmHg 44%
    04:00 +28°C° 0 mm 0 mps 705 mmHg 45%
    05:00 +28°C° 0 mm 0 mps 705 mmHg 46%
    06:00 +29°C° 0 mm 0 mps 705 mmHg 44%
    07:00 +32°C° 0 mm 1 mps 706 mmHg 42%
    08:00 +33°C° 0 mm 1 mps 706 mmHg 40%
    09:00 +34°C° 0 mm 1 mps 706 mmHg 38%
    10:00 +36°C° 0 mm 2 mps 706 mmHg 36%
    11:00 +37°C° 0 mm 2 mps 706 mmHg 34%
    12:00 +38°C° 0.1 mm 2 mps 706 mmHg 33%
    13:00 +38°C° 0.1 mm 2 mps 705 mmHg 31%
    14:00 +39°C° 0.1 mm 3 mps 705 mmHg 30%
    15:00 +39°C° 0.2 mm 3 mps 705 mmHg 30%
    16:00 +39°C° 0.2 mm 3 mps 705 mmHg 30%
    17:00 +39°C° 0.2 mm 3 mps 704 mmHg 31%
    18:00 +38°C° 0.2 mm 2 mps 705 mmHg 35%
    19:00 +37°C° 0.2 mm 2 mps 705 mmHg 39%
    20:00 +35°C° 0.2 mm 1 mps 705 mmHg 43%
    21:00 +34°C° 0.2 mm 1 mps 705 mmHg 44%
    22:00 +34°C° 0.2 mm 1 mps 706 mmHg 46%
    23:00 +33°C° 0.2 mm 1 mps 706 mmHg 47%

    24 August, Thursday

    Time Temperature Precipitation Wind Pressure Humidity
    00:00 +33°C° 0.1 mm 1 mps 706 mmHg 48%
    01:00 +32°C° 0.1 mm 1 mps 705 mmHg 49%
    02:00 +30°C° 0.1 mm 0 mps 705 mmHg 50%
    03:00 +29°C° 0.1 mm 0 mps 705 mmHg 51%
    04:00 +29°C° 0.1 mm 0 mps 705 mmHg 52%
    05:00 +28°C° 0.1 mm 0 mps 705 mmHg 53%
    06:00 +31°C° 0 mm 1 mps 705 mmHg 51%
    07:00 +32°C° 0 mm 1 mps 706 mmHg 50%
    08:00 +33°C° 0 mm 1 mps 706 mmHg 48%
    09:00 +34°C° 0.1 mm 1 mps 706 mmHg 45%
    10:00 +35°C° 0.1 mm 1 mps 706 mmHg 42%
    11:00 +37°C° 0.1 mm 2 mps 706 mmHg 39%
    12:00 +37°C° 0.1 mm 2 mps 706 mmHg 37%
    13:00 +38°C° 0.1 mm 2 mps 705 mmHg 34%
    14:00 +39°C° 0.1 mm 3 mps 705 mmHg 32%
    15:00 +39°C° 0.3 mm 3 mps 705 mmHg 32%
    16:00 +39°C° 0.3 mm 3 mps 704 mmHg 32%
    17:00 +39°C° 0.3 mm 3 mps 704 mmHg 32%
    18:00 +38°C° 0.2 mm 2 mps 704 mmHg 37%
    19:00 +37°C° 0.2 mm 2 mps 705 mmHg 41%
    20:00 +35°C° 0.2 mm 1 mps 705 mmHg 46%
    21:00 +34°C° 0.2 mm 1 mps 705 mmHg 48%
    22:00 +33°C° 0.2 mm 1 mps 705 mmHg 49%
    23:00 +33°C° 0.2 mm 1 mps 705 mmHg 51%
    Show more